EW8320 Weather Reports


time (UTC)temp
C
wind
direction
speed
KPH
gust
KPH
rain 1hr
cm
rain 24hr
cm
rain mn
cm
humidity
%
barometer
mb
20260509154415 12 207 0.0 0.0 0.00 0.00 0.00 100 1025.5
20260509153417 13 216 0.0 0.0 0.00 0.00 0.00 98 1025.6
20260509152516 12 216 0.0 0.0 0.00 0.00 0.00 92 1025.5
20260509151516 11 218 0.0 0.0 0.00 0.00 0.00 99 1025.7
20260509150517 12 247 0.0 0.0 0.00 0.00 0.00 100 1025.8
20260509144616 10 271 0.0 0.0 0.00 0.00 0.00 100 1025.8
20260509143617 10 268 0.0 0.0 0.00 0.00 0.00 100 1026.0
20260509141716 7 255 0.0 0.0 0.00 0.00 0.00 100 1025.8
20260509140718 7 258 0.0 0.0 0.00 0.00 0.00 100 1025.6
20260509135816 7 255 0.0 0.0 0.00 0.00 0.00 100 1025.5
20260509134915 8 265 0.0 0.0 0.00 0.00 0.00 100 1025.4
20260509133916 7 264 0.0 0.0 0.00 0.00 0.00 98 1025.3
20260509132917 6 261 0.0 0.0 0.00 0.00 0.00 100 1025.1
20260509131918 5 258 0.0 0.0 0.00 0.00 0.00 100 1024.9
20260509130016 3 260 0.0 0.0 0.00 0.00 0.00 100 1024.8
20260509125016 6 252 0.0 0.0 0.00 0.00 0.00 100 1024.6
20260509124917 6 252 0.0 0.0 0.00 0.00 0.00 100 1024.6
20260509123916 8 228 0.0 0.0 0.00 0.00 0.00 100 1024.5
20260509122917 6 273 0.0 0.0 0.00 0.00 0.00 100 1024.4
20260509121922 4 265 0.0 0.0 0.00 0.00 0.00 100 1024.4
20260509120916 6 206 0.0 0.0 0.00 0.00 0.00 100 1024.2
20260509115917 6 225 0.0 0.0 0.00 0.00 0.00 100 1024.2
20260509114917 2 225 0.0 0.0 0.00 0.00 0.00 100 1024.2
20260509113917 1 202 0.0 0.0 0.00 0.00 0.00 80 1024.2
20260509113816 1 202 0.0 0.0 0.00 0.00 0.00 80 1024.1
20260509112816 1 277 0.0 0.0 0.00 0.00 0.00 79 1024.1
20260509110916 1 267 0.0 0.0 0.00 0.00 0.00 79 1024.3
20260509110817 1 266 0.0 0.0 0.00 0.00 0.00 78 1024.2
20260509105915 1 225 0.0 0.0 0.00 0.00 0.00 77 1024.0
20260509105815 1 225 0.0 0.0 0.00 0.00 0.00 77 1024.1
20260509104817 2 256 0.0 0.0 0.00 0.00 0.00 76 1024.0
20260509103818 2 261 0.0 0.0 0.00 0.00 0.00 76 1024.0
20260509102917 2 264 0.0 0.0 0.00 0.00 0.00 76 1023.9
20260509100916 1 263 0.0 0.0 0.00 0.00 0.00 80 1023.8
20260509095916 1 247 0.0 0.0 0.00 0.00 0.00 79 1023.9
20260509094015 2 215 0.0 0.0 0.00 0.00 0.00 79 1024.1
20260509093017 2 225 0.0 0.0 0.00 0.00 0.00 77 1023.8
20260509092018 2 279 0.0 0.0 0.00 0.00 0.00 76 1023.8
20260509090133 3 198 0.0 0.0 0.00 0.00 0.00 75 1023.9
20260509085216 3 292 0.0 0.0 0.00 0.00 0.00 75 1023.7
20260509084217 3 292 0.0 0.0 0.00 0.00 0.00 72 1023.7
20260509083316 4 186 0.0 0.0 0.00 0.00 0.00 72 1023.8
20260509082317 4 225 0.0 0.0 0.00 0.00 0.00 70 1023.6
20260509081317 5 225 0.0 0.0 0.00 0.00 0.00 64 1023.5
20260509080316 6 292 0.0 0.0 0.00 0.00 0.00 62 1023.7
20260509075315 8 199 0.0 0.0 0.00 0.00 0.00 58 1023.7
20260509074316 8 135 0.0 0.0 0.00 0.00 0.00 55 1023.7
20260509071316 10 347 0.0 0.0 0.00 0.00 0.00 53 1023.5
20260509070318 8 82 0.0 0.0 0.00 0.00 0.00 60 1023.2
20260509064315 7 360 0.0 0.0 0.00 0.00 0.00 60 1023.3
20260509062316 8 45 0.0 0.0 0.00 0.00 0.00 57 1023.2
20260509060316 10 29 0.0 0.0 0.00 0.00 0.00 51 1023.2
20260509055415 11 71 0.0 0.0 0.00 0.00 0.00 48 1023.0
20260509054417 11 96 0.0 0.0 0.00 0.00 0.00 46 1022.7
20260509053514 12 70 0.0 0.0 0.00 0.00 0.00 42 1022.8
20260509052530 12 214 0.0 0.0 0.00 0.00 0.00 45 1022.5
20260509051615 10 292 0.0 0.0 0.00 0.00 0.00 49 1022.4
20260509050616 9 315 0.0 0.0 0.00 0.00 0.00 51 1022.4
20260509045616 9 90 0.0 0.0 0.00 0.00 0.00 51 1022.3
20260509044615 10 360 0.0 0.0 0.00 0.00 0.00 50 1022.3
20260509042716 11 90 0.0 0.0 0.00 0.00 0.00 44 1022.1
20260509041814 12 261 0.0 0.0 0.00 0.00 0.00 40 1022.1
20260509040818 12 60 0.0 0.0 0.00 0.00 0.00 42 1022.0
20260509035914 12 291 0.0 0.0 0.00 0.00 0.00 40 1022.1
20260509035014 13 107 0.0 0.0 0.00 0.00 0.00 39 1021.9
20260509033018 13 190 0.0 0.0 0.00 0.00 0.00 38 1021.7
20260509032014 13 213 0.0 0.0 0.00 0.00 0.00 37 1021.6
20260509031915 14 282 0.0 0.0 0.00 0.00 0.00 37 1021.6
20260509030924 14 227 0.0 0.0 0.00 0.00 0.00 36 1021.5
20260509030015 13 73 0.0 0.0 0.00 0.00 0.00 36 1021.2
20260509025015 14 94 0.0 0.0 0.00 0.00 0.00 35 1021.1
20260509023917 14 308 0.0 0.0 0.00 0.00 0.00 34 1021.1
20260509022915 14 258 0.0 0.0 0.00 0.00 0.00 33 1021.1
20260509022816 15 279 0.0 0.0 0.00 0.00 0.00 33 1021.1
20260509021914 15 121 0.0 0.0 0.00 0.00 0.00 32 1020.9
20260509020014 15 89 0.0 0.0 0.00 0.00 0.00 30 1020.6
20260509015015 16 68 0.0 0.0 0.00 0.00 0.00 29 1020.7
20260509014017 16 91 0.0 0.0 0.00 0.00 0.00 29 1020.4
20260509013114 16 89 0.0 0.0 0.00 0.00 0.00 28 1020.5
20260509011114 17 99 0.0 0.0 0.00 0.00 0.00 28 1020.1
20260509010131 17 82 0.0 0.0 0.00 0.00 0.00 29 1020.0
20260509005115 18 101 0.0 0.0 0.00 0.00 0.00 33 1020.1
20260509004214 18 105 0.0 0.0 0.00 0.00 0.00 34 1020.0
20260509003216 17 81 0.0 0.0 0.00 0.00 0.00 36 1019.8
20260509002314 17 81 0.0 0.0 0.00 0.00 0.00 35 1020.0
20260509001315 17 71 0.0 0.0 0.00 0.00 0.00 36 1020.1
20260509000318 17 73 0.0 0.0 0.00 0.00 0.00 36 1020.2
20260508235315 18 93 0.0 0.0 0.00 0.00 0.00 37 1019.9
20260508232318 18 82 0.0 0.0 0.00 0.00 0.00 33 1020.4
20260508230414 18 104 0.0 0.0 0.00 0.00 0.00 32 1020.4
20260508225415 17 93 0.0 0.0 0.00 0.00 0.00 35 1020.3
20260508224416 17 93 0.0 0.0 0.00 0.00 0.00 34 1020.4
20260508223416 17 93 0.0 0.0 0.00 0.00 0.00 35 1020.4
20260508222415 17 112 0.0 0.0 0.00 0.00 0.00 33 1020.3
20260508221515 17 101 0.0 0.0 0.00 0.00 0.00 34 1020.1
20260508220515 17 93 0.0 0.0 0.00 0.00 0.00 32 1020.0
20260508214615 18 104 0.0 0.0 0.00 0.00 0.00 32 1020.0
20260508213616 18 96 0.0 0.0 0.00 0.00 0.00 31 1019.9
20260508212715 18 109 0.0 0.0 0.00 0.00 0.00 33 1020.0
20260508211716 18 81 0.0 0.0 0.00 0.00 0.00 33 1019.9
20260508210714 18 92 0.0 0.0 0.00 0.00 0.00 33 1019.7
20260508205716 18 73 3.2 27.4 0.00 0.00 0.00 32 1020.0
20260508204716 18 78 0.0 0.0 0.00 0.00 0.00 31 1020.0
20260508203716 18 88 0.0 0.0 0.00 0.00 0.00 30 1020.0
20260508202718 18 84 0.0 0.0 0.00 0.00 0.00 30 1020.0
20260508201815 18 78 0.0 0.0 0.00 0.00 0.00 32 1020.0
20260508200814 16 87 0.0 0.0 0.00 0.00 0.00 33 1020.2
20260508195815 16 114 0.0 0.0 0.00 0.00 0.00 32 1020.4
20260508194815 15 104 0.0 0.0 0.00 0.00 0.00 35 1020.6
20260508193816 15 94 0.0 0.0 0.00 0.00 0.00 37 1020.7
20260508192816 15 111 0.0 0.0 0.00 0.00 0.00 39 1020.7
20260508191716 15 84 0.0 0.0 0.00 0.00 0.00 39 1020.7
20260508190716 14 174 0.0 0.0 0.00 0.00 0.00 40 1020.9
20260508185732 14 93 0.0 0.0 0.00 0.00 0.00 39 1020.7
20260508183815 14 98 0.0 0.0 0.00 0.00 0.00 39 1021.1
20260508182817 13 100 0.0 0.0 0.00 0.00 0.00 38 1021.2
20260508182715 13 95 0.0 0.0 0.00 0.00 0.00 38 1021.1
20260508181714 13 87 0.0 0.0 0.00 0.00 0.00 39 1021.2
20260508180715 13 103 0.0 0.0 0.00 0.00 0.00 41 1021.0
20260508175716 12 60 0.0 0.0 0.00 0.00 0.00 43 1021.2
20260508173715 12 80 0.0 0.0 0.00 0.00 0.00 41 1021.1
20260508172714 12 38 0.0 0.0 0.00 0.00 0.00 41 1021.3
20260508165714 11 90 0.0 0.0 0.00 0.00 0.00 45 1020.9
20260508164715 12 73 0.0 0.0 0.00 0.00 0.00 48 1020.9
20260508163732 11 100 0.0 0.0 0.00 0.00 0.00 47 1021.0
20260508162814 11 112 0.0 0.0 0.00 0.00 0.00 46 1021.0
20260508161815 11 117 0.0 0.0 0.00 0.00 0.00 46 1020.8
20260508160815 10 112 0.0 0.0 0.00 0.00 0.00 48 1020.9
20260508155814 10 180 0.0 0.0 0.00 0.00 0.00 49 1021.0
20260508154816 14 197 0.0 0.0 0.00 0.00 0.00 100 1020.9